This is the latest recevied weather packets stored in our database for station/object SP6KBU-12. If no packets are shown the sender has not sent any weather packets the latest 10 day(s).
| Time | Temp. | Humidity | Pressure | Rain* | Wind** | Luminosity | Snow |
|---|---|---|---|---|---|---|---|
| 1777335317 | 7.22° C | 40% | 1022.7 hPa | - | - | - | - |
| 1777334417 | 7.22° C | 40% | 1022.7 hPa | - | - | - | - |
| 1777333872 | 6.67° C | 41% | 1022.7 hPa | - | - | - | - |
| 1777332972 | 7.22° C | 40% | 1022.5 hPa | - | - | - | - |
| 1777332071 | 7.22° C | 39% | 1022.6 hPa | - | - | - | - |
| 1777331171 | 7.22° C | 39% | 1022.6 hPa | - | - | - | - |
| 1777330272 | 7.22° C | 38% | 1022.5 hPa | - | - | - | - |
| 1777329372 | 7.78° C | 38% | 1022.6 hPa | - | - | - | - |
| 1777328472 | 8.33° C | 37% | 1022.6 hPa | - | - | - | - |
| 1777327572 | 8.33° C | 37% | 1022.5 hPa | - | - | - | - |
| 1777326672 | 8.33° C | 38% | 1022.4 hPa | - | - | - | - |
| 1777325772 | 8.33° C | 37% | 1022.6 hPa | - | - | - | - |
| 1777324876 | 8.89° C | 37% | 1022.6 hPa | - | - | - | - |
| 1777323972 | 8.33° C | 38% | 1022.5 hPa | - | - | - | - |
| 1777323072 | 8.33° C | 38% | 1022.6 hPa | - | - | - | - |
| 1777322172 | 8.33° C | 38% | 1022.6 hPa | - | - | - | - |
| 1777321272 | 8.33° C | 37% | 1022.6 hPa | - | - | - | - |
| 1777320372 | 8.89° C | 38% | 1022.7 hPa | - | - | - | - |
| 1777319472 | 8.89° C | 37% | 1022.8 hPa | - | - | - | - |
| 1777318572 | 9.44° C | 36% | 1022.8 hPa | - | - | - | - |
| 1777318238 | 9.44° C | 35% | 1022.7 hPa | - | - | - | - |
| 1777318237 | 9.44° C | 33% | 1022.8 hPa | - | - | - | - |
| 1777317672 | 9.44° C | 35% | 1022.7 hPa | - | - | - | - |
| 1777316774 | 9.44° C | 33% | 1022.8 hPa | - | - | - | - |
| 1777315873 | 10° C | 32% | 1022.7 hPa | - | - | - | - |
* Rain since midnight (hover to see other rain measurements)
** Current wind speed in m/s (hover to see current wind gust speed)